User: anonymous   Login
Location: Lawrence
(38.9720°N, 95.2350°W)
Time: 22:04:30
(UTC-06:00)
Language:

ALOS - Orbit

View from above orbital plane
View from above orbital plane
View from above satellite
View from above satellite

Ground track
Ground track

The orbit data is extracted from the following two-line orbital elements,

1 28931U 06002A   15063.89348079  .00001015  00000-0  21274-3 0  9990
2 28931 097.9480 117.4054 0002382 088.1728 271.9750 14.61705998485405
Epoch (UTC): 04 March 2015 21:26:36
Eccentricity: 0.0002382
inclination: 97.9480°
perigee height: 686 km
apogee height: 689 km
right ascension of ascending node: 117.4054°
argument of perigee: 88.1728°
revolutions per day: 14.61705998
mean anomaly at epoch: 271.9750°
orbit number at epoch: 48540

The dashed part of the orbit path shows where the satellite is in the earth's shadow,  

DLR